Showing default

OPS 9326 (IDSCS 13), 2653

Orbit data source: Space-Track

OPS 9326 (IDSCS 13), 2653 is a payload satellite owned by USAF SSD (US) in GEO that was launched on Wed, 18 Jan 1967 UTC via a TITAN IIIC launch vehicle from the Air Force Eastern Test Range (AFETR). Payload-class satellites include a variety of spacecraft equipped with specific instruments for various scientific and technological missions. These include communications satellites like Starlink; space stations such as the ISS; scientific satellites like the Hubble; Earth observation satellites from companies like Planet Labs, Umbra, and HawkEye 360; GPS; miniature CubeSats for education and research; and military/defense satellites.

Not visible in the next 10 days
Identifier
2653, 1967-003F
Orbit
GEO
Last TLE update
19 hours ago
Origin
Manufacturer
Philco-Ford WDL
Mission
Non-operational Defense Communications
Bus & Motor
IDCSP, Unknown motor
Mass
45 kg wet, 45 kg dry
Launch date (UTC)
1967-01-18 (58 years ago)
Launch vehicle
TITAN IIIC
Launch site
Air Force Eastern Test Range (AFETR)
Object type
Payload
Rocket body
Debris
Shape & HBR
Ico Poly, 0.9 m
Radar Cross Section
0.926 m², Medium (>0.1 m² and < 1m²)

Expand to show TLE details & history

TLE from 19 hours ago
0 OPS 9326 (IDSCS 13)
1 02653U 67003F   25128.48328015 -.00000065  00000-0  00000-0 0  9993
2 02653   7.4117  49.8750 0046752  51.7990 308.5110  1.07748998128334
Epoch: 2025-05-08T11:35Z
Definitive object data (Epoch: 2025-05-08T11:35:55.404Z)
Latitude
-0.00001°
Longitude
9.23497°
Altitude
33,695.289 km
Speed
3.158 km/s
True Right ascension
03h 19m 04s
True Declination
0° 00' 00"
Sunlit
Object was in daylight at TLE epoch
Visualization TLE readout
Latitude
-6.0313°
Longitude
-45.1163°
Altitude
33,864.678 km
Speed
3.145 km/s
Apparent Right ascension
23h 59m 39s
Apparent Declination
-10° 45' 26"
Sunlit
Object is in daylight
Visualization observer readout
Local Sidereal Time
14:38:55
Azimuth
61.537° ENE
Elevation
-44.309°
Doppler factor
1
Orbital elements
Apogee altitude
34,001.633 km
Perigee altitude
33,625.823 km
Semi-major axis
40,191.865 km
Eccentricity
0.0046752
Inclination
7.4117°
RAAN
49.875°
Arg. of periapsis
51.799°
True anomaly
308.09026°
Mean anomaly
308.511°
Eccentric anomaly
308.30078°
Mean motion
0.26936 °/min
BSTAR
Unknown
Orbital period
1336.49 mins
Loading historical data...
2653 neighbors
Loading maneuver chart data...
Loading SW <> Apogee altitude chart data...
Loading historical data...
Loading historical data...
Loading historical data...
Loading historical data...
Loading historical data...
Loading historical data...
Loading historical data...

OPS 9326 (IDSCS 13) Visibility forecast

Observer location: undefined°, undefined°

OPS 9326 (IDSCS 13) is not visible in the next 10 days
Span
Click to sort rows by Start time (UTC) header in descending order
Start Az.
Max El. time (UTC)
Max El. Az.
Max El.
End time (UTC)
End Az.
|